Date String (YYYY-MM-DD hh:mm:ss) UTC,Instrument flags,Ambient pressure (hPa),Sample flow (lpm),Bypass flow (lpm),Sample temperature (°C),Ambient temperature (°C),ASC tube jacket temperature (°C),LED temperature (°C),Box temperature (°C),Sample RH (%),Span deviation,Mass concentration (μg/m³),Mass concentration (μg/m³),Mass concentration (μg/m³)
DateTimeUTC,F1_M11,P_M11,Q1_M11,Q2_M11,T1_M11,T2_M11,T3_M11,T4_M11,T5_M11,U1_M11,ZSPAN_M11,X0_M11,X2_M11,X1_M11
2022-01-08 12:00:00,,0813.2,5.01,0.00,22.7,22.1,00.0,31.6,24.5,12.2,0000.0,0002.10,0000.99,0000.88
2022-01-08 12:01:00,,0813.3,4.99,0.00,22.7,22.1,00.0,31.6,24.5,12.1,0000.0,0002.06,0000.97,0000.87
2022-01-08 12:02:00,,0813.3,5.00,0.00,22.7,22.1,00.0,31.7,24.5,12.1,0000.0,0002.07,0000.97,0000.86
2022-01-08 12:03:00,,0813.3,5.00,0.00,22.7,22.2,00.0,31.7,24.5,12.1,0000.0,0002.08,0000.97,0000.85
2022-01-08 12:04:00,,0813.2,5.01,0.00,22.7,22.2,00.0,31.7,24.6,12.0,0000.0,0002.06,0000.96,0000.85
2022-01-08 12:05:00,,0813.3,4.99,0.00,22.7,22.2,00.0,31.7,24.6,12.0,0000.0,0001.59,0000.97,0000.85
2022-01-08 12:06:00,,0813.3,4.99,0.00,22.7,22.1,00.0,31.7,24.6,12.0,0000.0,0001.35,0000.96,0000.84
2022-01-08 12:07:00,,0813.3,5.00,0.00,22.7,22.1,00.0,31.7,24.6,12.1,0000.0,0001.36,0000.97,0000.85
2022-01-08 12:08:00,,0813.3,5.01,0.00,22.7,22.1,00.0,31.7,24.5,12.1,0000.0,0001.38,0000.97,0000.85
2022-01-08 12:09:00,,0813.3,5.00,0.00,22.7,22.1,00.0,31.7,24.5,12.1,0000.0,0001.33,0000.94,0000.82
2022-01-08 12:10:00,,0813.3,5.00,0.00,22.7,22.1,00.0,31.7,24.5,12.1,0000.0,0001.29,0000.92,0000.81
2022-01-08 12:11:00,,0813.3,5.01,0.00,22.7,22.1,00.0,31.7,24.5,12.1,0000.0,0001.27,0000.90,0000.80
2022-01-08 12:12:00,,0813.3,5.00,0.00,22.7,22.1,00.0,31.7,24.5,12.1,0000.0,0001.24,0000.89,0000.79
2022-01-08 12:13:00,,0813.4,4.99,0.00,22.7,22.1,00.0,31.7,24.5,12.1,0000.0,0001.18,0000.86,0000.78
2022-01-08 12:14:00,,0813.5,5.00,0.00,22.7,22.1,00.0,31.7,24.5,12.1,0000.0,0001.13,0000.83,0000.77
2022-01-08 12:15:00,,0813.5,5.00,0.00,22.7,22.1,00.0,31.7,24.5,12.0,0000.0,0001.10,0000.82,0000.75
2022-01-08 12:16:00,,0813.4,5.01,0.00,22.7,22.1,00.0,31.7,24.5,12.0,0000.0,0001.04,0000.79,0000.73
2022-01-08 12:17:00,,0813.4,5.00,0.00,22.7,22.1,00.0,31.7,24.6,12.0,0000.0,0000.99,0000.76,0000.71
2022-01-08 12:18:00,,0813.5,5.01,0.00,22.8,22.1,00.0,31.7,24.6,12.0,0000.0,0000.95,0000.73,0000.68
2022-01-08 12:19:00,,0813.4,4.98,0.00,22.8,22.1,00.0,31.7,24.6,12.0,0000.0,0000.91,0000.70,0000.66
2022-01-08 12:20:00,,0813.5,5.00,0.00,22.8,22.2,00.0,31.7,24.6,12.0,0000.0,0000.87,0000.68,0000.64
2022-01-08 12:21:00,,0813.5,5.00,0.00,22.8,22.2,00.0,31.7,24.6,12.0,0000.0,0000.86,0000.68,0000.63
2022-01-08 12:22:00,,0813.5,5.00,0.00,22.8,22.2,00.0,31.8,24.6,12.0,0000.0,0000.88,0000.67,0000.61
2022-01-08 12:23:00,,0813.4,5.01,0.00,22.8,22.2,00.0,31.8,24.6,12.0,0000.0,0000.91,0000.65,0000.59
2022-01-08 12:24:00,,0813.5,5.00,0.00,22.8,22.2,00.0,31.8,24.6,12.0,0000.0,0000.87,0000.63,0000.58
2022-01-08 12:25:00,,0813.6,5.01,0.00,22.8,22.1,00.0,31.8,24.6,12.0,0000.0,0000.86,0000.62,0000.56
2022-01-08 12:26:00,,0813.5,4.99,0.00,22.7,22.1,00.0,31.8,24.5,12.1,0000.0,0000.86,0000.61,0000.55
2022-01-08 12:27:00,,0813.5,4.99,0.00,22.7,22.1,00.0,31.8,24.5,12.1,0000.0,0000.88,0000.62,0000.55
2022-01-08 12:28:00,,0813.5,5.01,0.00,22.7,22.1,00.0,31.8,24.5,12.2,0000.0,0000.85,0000.61,0000.55
2022-01-08 12:29:00,,0813.6,5.00,0.00,22.8,22.1,00.0,31.8,24.5,12.2,0000.0,0000.85,0000.61,0000.55
2022-01-08 12:30:00,,0813.5,5.01,0.00,22.8,22.1,00.0,31.8,24.6,12.3,0000.0,0000.90,0000.61,0000.54
2022-01-08 12:31:00,,0813.5,5.00,0.00,22.7,22.1,00.0,31.8,24.6,12.3,0000.0,0001.04,0000.61,0000.54
2022-01-08 12:32:00,,0813.6,5.00,0.00,22.8,22.1,00.0,31.8,24.5,12.2,0000.0,0001.02,0000.60,0000.53
2022-01-08 12:33:00,,0813.6,5.00,0.00,22.7,22.1,00.0,31.8,24.5,12.2,0000.0,0000.99,0000.60,0000.53
2022-01-08 12:34:00,,0813.6,5.00,0.00,22.7,22.1,00.0,31.8,24.5,12.2,0000.0,0000.98,0000.62,0000.55
2022-01-08 12:35:00,,0813.6,4.99,0.00,22.7,22.1,00.0,31.8,24.5,12.1,0000.0,0001.00,0000.63,0000.54
2022-01-08 12:36:00,,0813.5,4.99,0.00,22.8,22.1,00.0,31.8,24.6,12.1,0000.0,0000.99,0000.62,0000.54
2022-01-08 12:37:00,,0813.5,5.01,0.00,22.8,22.1,00.0,31.8,24.6,12.1,0000.0,0000.97,0000.62,0000.54
2022-01-08 12:38:00,,0813.5,5.00,0.00,22.8,22.2,00.0,31.8,24.6,12.1,0000.0,0000.96,0000.61,0000.54
2022-01-08 12:39:00,,0813.6,5.01,0.00,22.8,22.2,00.0,31.8,24.6,12.1,0000.0,0000.97,0000.62,0000.54
2022-01-08 12:40:00,,0813.5,5.00,0.00,22.8,22.2,00.0,31.8,24.7,12.0,0000.0,0000.99,0000.62,0000.54
2022-01-08 12:41:00,,0813.6,5.00,0.00,22.8,22.2,00.0,31.8,24.7,12.0,0000.0,0000.98,0000.62,0000.54
2022-01-08 12:42:00,,0813.5,5.00,0.00,22.8,22.2,00.0,31.8,24.7,12.0,0000.0,0000.83,0000.62,0000.55
2022-01-08 12:43:00,,0813.6,5.00,0.00,22.8,22.2,00.0,31.8,24.6,12.0,0000.0,0000.83,0000.62,0000.54
2022-01-08 12:44:00,,0813.6,5.00,0.00,22.8,22.2,00.0,31.8,24.6,12.0,0000.0,0000.83,0000.62,0000.54
2022-01-08 12:45:00,,0813.8,4.99,0.00,22.8,22.2,00.0,31.8,24.7,12.0,0000.0,0000.80,0000.61,0000.54
2022-01-08 12:46:00,,0813.6,4.99,0.00,22.8,22.2,00.0,31.8,24.6,12.0,0000.0,0000.83,0000.62,0000.55
2022-01-08 12:47:00,,0813.6,5.01,0.00,22.8,22.2,00.0,31.8,24.6,12.0,0000.0,0000.84,0000.62,0000.55
2022-01-08 12:48:00,,0813.6,5.00,0.00,22.8,22.2,00.0,31.8,24.6,12.0,0000.0,0000.86,0000.63,0000.55
2022-01-08 12:49:00,,0813.7,5.00,0.00,22.8,22.2,00.0,31.8,24.6,12.0,0000.0,0000.84,0000.63,0000.55
2022-01-08 12:50:00,,0814.3,5.00,0.00,22.8,22.2,00.0,31.8,24.6,12.0,0000.0,0000.82,0000.62,0000.55
2022-01-08 12:51:00,,0814.3,5.00,0.00,22.8,22.2,00.0,31.8,24.6,11.9,0000.0,0000.79,0000.62,0000.55
2022-01-08 12:52:00,,0814.2,5.01,0.00,22.8,22.2,00.0,31.8,24.7,11.9,0000.0,0000.79,0000.61,0000.55
2022-01-08 12:53:00,,0814.3,4.99,0.00,22.8,22.2,00.0,31.8,24.7,11.9,0000.0,0000.78,0000.61,0000.55
2022-01-08 12:54:00,,0813.9,5.00,0.00,22.8,22.2,00.0,31.8,24.7,11.9,0000.0,0000.78,0000.61,0000.55
2022-01-08 12:55:00,,0813.9,5.00,0.00,22.9,22.2,00.0,31.8,24.7,12.0,0000.0,0000.81,0000.63,0000.56
2022-01-08 12:56:00,,0813.8,5.01,0.00,22.9,22.2,00.0,31.8,24.7,12.0,0000.0,0000.82,0000.63,0000.55
2022-01-08 12:57:00,,0813.8,4.99,0.00,22.9,22.2,00.0,31.8,24.7,12.0,0000.0,0000.83,0000.63,0000.55
2022-01-08 12:58:00,,0813.8,5.00,0.00,22.9,22.3,00.0,31.8,24.7,12.0,0000.0,0000.84,0000.63,0000.54
2022-01-08 12:59:00,,0813.8,5.00,0.00,22.9,22.3,00.0,31.8,24.8,11.9,0000.0,0000.84,0000.63,0000.54
